Location: Newark
(25.4800°N, 85.7200°E)
Time: 08:15:56
(UTC+00:00)

Transit 4A - Pass Details

Date: 28 August 2019
Orbit: 867 x 978 km, 66.8° (Epoch: 21 October)

Event Time Altitude Azimuth Distance (km) Brightness Sun altitude
Rises 19:11:11 0° 358° (N) 3,587 11.5 -52.6°
Enters shadow 19:13:25 - 10° (N) 2,973 11.0 -52.4°
Reaches altitude 10° 19:14:58 10° 21° (NNE) 2,616 - -52.3°
Maximum altitude 19:18:23 15° 55° (NE) 2,233 - -52.0°
Drops below altitude 10° 19:21:44 10° 90° (E) 2,568 - -51.7°
Sets 19:25:21 0° 113° (ESE) 3,484 - -51.3°
